Orbital Elements at Epoch 2459200.5 (2020-Dec-17.0) TDB
Reference: JPL 29 (heliocentric ecliptic J2000)
Element | Value | Uncertainty (1-sigma) | Units |
e | .05554950222479817 | 3.1602e-08 | |
a | 2.36303305191127 | 7.8944e-09 | au |
q | 2.231767742136853 | 7.4079e-08 | au |
i | 8.662318795317162 | 3.515e-06 | deg |
node | 71.03375838563834 | 2.4038e-05 | deg |
peri | 125.8166031047697 | 4.1637e-05 | deg |
M | 126.3465781092517 | 3.3479e-05 | deg |
tp | 2458734.845177928433 (2019-Sep-08.34517793) | 0.00012328 | TDB |
period | 1326.792845951157 3.63 | 6.6488e-06 1.82e-08 | d yr |
n | .2713309776266706 | 1.3597e-09 | deg/d |
Q | 2.494298361685686 | 8.3329e-09 | au |
|
| | Orbit Determination Parameters
Additional Information
|